Find Starlink 33635

NORAD ID: 63065 Int'l Des: 2025-035 Owner: SPXS Country: US Constellation: starlink operational
LEOCIRCULAR

Current View

Loading 3D Globe...

About Starlink 33635

Starlink 33635 (NORAD 63065) is a starlink constellation satellite (v2 mini) launched Feb 21, 2025 by SPXS of US. It operates in LEO, CIRCULAR orbit with a mass of 575.00 kg.

About Starlink 33635

Description loading...

Upcoming Passes

Passes for default location (London). Set your location on the main map for personalized predictions.

Altitude History

Loading altitude history...

Two-Line Element Set

1 63065U 25035P 26167.11965145 .00022647 00000-0 82968-3 0 9996
2 63065 43.0049 311.1745 0002011 269.9888 90.0733 15.27590831 74787
Epoch: Jun 16, 2026 • Age: 54 hours

Current Status

Altitude 486.3 km
Velocity 7.62 km/s
Sub-Earth Point -18.31°S, 95.53°E
Launch Date Feb 21, 2025
Age 1.3 years
Type internet

Technical Details

Classification Payload
Mass 575.00 kg
Dry Mass 530.00 kg
Total Mass 575.00 kg
Length 0.30 m
Diameter 4.10 m
Span 29.00 m
Shape Box + pan
Manufacturer SPXS
Bus Type Starlink V2MO
Phase Status In Orbit
Owner/State SPXS/US

Most Searched